This is the latest recevied weather packets stored in our database for station/object SR1WXW. If no packets are shown the sender has not sent any weather packets the latest 10 day(s).
| Time | Temp. | Humidity | Pressure | Rain* | Wind** | Luminosity | Snow |
|---|---|---|---|---|---|---|---|
| 1777448002 | 14.44° C | 40% | 1026.2 hPa | 0 mm | - | - | - |
| 1777447702 | 13.89° C | 42% | 1026.2 hPa | 0 mm | - | - | - |
| 1777447402 | 13.33° C | 44% | 1026.2 hPa | 0 mm | - | - | - |
| 1777447102 | 12.78° C | 45% | 1026.2 hPa | 0 mm | - | - | - |
| 1777446802 | 12.78° C | 49% | 1026.2 hPa | 0 mm | - | - | - |
| 1777446502 | 11.67° C | 51% | 1026.1 hPa | 0 mm | - | - | - |
| 1777446202 | 10.56° C | 54% | 1026.2 hPa | 0 mm | - | - | - |
| 1777445902 | 9.44° C | 58% | 1026.2 hPa | 0 mm | - | - | - |
| 1777445602 | 7.78° C | 59% | 1026.1 hPa | 0 mm | - | - | - |
| 1777445302 | 6.67° C | 60% | 1026.1 hPa | 0 mm | - | - | - |
| 1777445002 | 6.11° C | 60% | 1026.1 hPa | 0 mm | - | - | - |
| 1777444702 | 5.56° C | 62% | 1026.1 hPa | 0 mm | - | - | - |
| 1777444402 | 5° C | 62% | 1026.1 hPa | 0 mm | - | - | - |
| 1777444102 | 5° C | 62% | 1026.2 hPa | 0 mm | - | - | - |
| 1777443802 | 5° C | 63% | 1026.2 hPa | 0 mm | - | - | - |
| 1777443502 | 4.44° C | 64% | 1026.2 hPa | 0 mm | - | - | - |
| 1777443202 | 4.44° C | 65% | 1026.1 hPa | 0 mm | - | - | - |
| 1777442902 | 4.44° C | 66% | 1026 hPa | 0 mm | - | - | - |
| 1777442602 | 3.89° C | 67% | 1026 hPa | 0 mm | - | - | - |
| 1777442302 | 3.89° C | 67% | 1026 hPa | 0 mm | - | - | - |
| 1777442002 | 3.33° C | 67% | 1026.1 hPa | 0 mm | - | - | - |
| 1777441703 | 3.33° C | 67% | 1026 hPa | 0 mm | - | - | - |
| 1777441402 | 3.33° C | 67% | 1025.8 hPa | 0 mm | - | - | - |
| 1777441102 | 3.33° C | 68% | 1025.8 hPa | 0 mm | - | - | - |
| 1777440803 | 2.78° C | 69% | 1025.6 hPa | 0 mm | - | - | - |
* Rain latest hour (hover to see other rain measurements)
** Current wind speed in m/s (hover to see current wind gust speed)